User: anonymous
Location: Lac de la Montange Noire
(46.1952°N, 74.2701°W)
Time: 09:38:20
(UTC-04:00)
Language:

Iridium 42 - Orbit

View from above orbital plane
View from above orbital plane
View from above satellite
View from above satellite

Ground track
Ground track

The orbit data is extracted from the following two-line orbital elements,

1 25077U 97077A   14243.48561906  .00000147  00000-0  45565-4 0  9333
2 25077 086.3928 088.6541 0002073 103.2102 256.9325 14.34222530875875
Epoch (UTC): 31 August 2014 11:39:17
Eccentricity: 0.0002073
inclination: 86.3928°
perigee height: 776 km
apogee height: 779 km
right ascension of ascending node: 88.6541°
argument of perigee: 103.2102°
revolutions per day: 14.34222530
mean anomaly at epoch: 256.9325°
orbit number at epoch: 87587

The dashed part of the orbit path shows where the satellite is in the earth's shadow,  

DLR